Terug naar catalogus

STARLINK-31462

ActiefCommunicatieVLEO
NORAD 59466·PAYLOAD·🇺🇸 United States

Gelanceerd Apr 10, 2024 vanaf Cape Canaveral Space Force Station

Loading…

Volgende Passages (komende 24 uur)

TLE

VersSource: CelesTrak SupGP

Epoch: Sep 14, 2026, 21:17 UTC

1 59466C 24068M   26257.88729167  .00061277  00000+0  22195-2 0  2570
2 59466  43.0028  45.9405 0001432 275.2595 274.0939 15.27547436    10

Volg STARLINK-31462 in realtime met AllMySat

Download on the App Store